Location: Brookfield Center
(41.2406°N, 80.5579°W)
Time: 04:22:16
(UTC+00:00)

SL-4 R/B - Pass Details

Date: 18 January 2020
Orbit: 428 x 666 km, 51.6° (Epoch: 26 February)

Event Time Altitude Azimuth Distance (km) Brightness Sun altitude
Exits shadow 11:13:53 21° 343° (NNW) 1,083 3.2 -16.8°
Maximum altitude 11:15:18 27° 21° (NNE) 889 3.1 -16.5°
Drops below altitude 10° 11:18:18 10° 82° (E) 1,541 5.4 -16.0°
Sets 11:20:35 0° 95° (E) 2,393 7.1 -15.6°
